IRIDIUM 39 [+]

Last updated on Fri Jul 15 2016 17:38:29 GMT+0000 (Coordinated Universal Time)

1 25042U 97069D 16197.38284497 .00000198 00000-0 49649-4 0 9997 2 25042 86.3946 162.8933 0018934 0.0288 0.0912 14.46067375978049
UTC large
Height (km)
Speed (km/s)
/
Latitude / Longitude
Inclination (degrees)
Orbital Period (minutes)
Azimuth
Elevation
Range (km)
Doppler Factor

Next 0 passes for location: London (51.5072 / 0.1276)

Sorry there are no passes over London.